Wind_Speed
15 14 13 12 10 8 7 6 5 4 4 4 3 3 2 1 1 2 3 4 5 6 7 8 8 9 9 9 9 10 10 11 11 12 13 14 15 16 17 18 18 19 19
16 15 14 12 11 9 7 7 6 5 5 4 4 3 1 0 1 2 4 5 6 7 8 8 9 9 9 10 11 11 11 11 12 13 14 14 16 17 18 19 19 19 19
18 16 15 13 12 10 8 7 7 6 5 4 3 3 1 1 2 3 5 6 7 8 8 8 9 9 10 11 11 11 12 12 13 14 15 16 17 18 19 19 20 20 20
19 17 16 14 12 10 9 8 7 6 5 4 3 3 2 2 3 4 5 7 8 9 9 9 9 10 10 11 11 12 13 13 14 15 16 17 18 19 20 20 21 21 21
20 18 17 15 13 11 10 9 8 7 6 5 4 3 3 3 4 5 6 7 8 9 10 10 10 10 11 11 12 13 14 15 16 17 18 19 19 20 21 22 22 22 22
21 19 18 16 14 12 11 10 9 8 7 6 5 4 4 4 5 6 7 8 9 10 11 11 11 11 11 12 13 14 15 16 17 18 19 20 20 21 22 23 24 24 24
23 20 19 18 16 14 12 11 10 9 7 6 6 5 5 6 6 7 8 9 10 11 11 11 12 12 12 13 13 14 15 16 17 18 20 21 22 23 23 24 25 25 25
24 22 20 19 17 16 14 13 11 10 9 8 7 7 7 7 8 9 9 10 11 12 12 12 12 13 13 14 14 15 16 17 18 20 21 22 23 24 25 25 26 26 26
26 23 21 20 18 17 16 14 13 11 10 9 8 8 8 9 9 10 11 11 12 13 13 13 14 14 15 15 16 17 17 19 20 21 22 23 24 25 26 27 27 27 27
27 25 23 21 20 18 17 16 14 13 12 10 10 9 9 10 10 11 11 12 13 14 14 14 15 16 16 17 17 18 19 20 21 22 23 24 25 26 27 28 28 29 28
28 26 24 23 21 20 18 17 16 14 13 11 11 10 11 11 11 12 12 13 13 14 15 15 16 17 17 18 19 20 20 21 22 23 24 25 26 27 28 29 30 30 30
31 29 27 25 23 22 20 19 17 16 14 13 12 12 12 12 13 13 13 14 14 15 15 16 17 17 18 19 20 21 22 23 23 24 25 26 27 29 30 31 31 31 31
34 31 29 27 25 24 22 21 19 18 16 15 14 14 14 14 14 15 15 15 16 16 17 17 18 19 20 21 22 23 24 24 25 26 27 28 29 30 31 32 33 33 33
36 34 32 30 28 26 25 23 22 20 18 17 17 16 16 16 17 17 17 17 18 18 18 19 20 20 21 22 24 24 25 26 28 29 30 31 32 33 33 34 35 35 35
38 36 34 32 31 29 28 26 25 23 21 20 19 19 19 19 19 19 20 20 20 20 21 21 22 23 24 25 26 27 28 29 30 31 32 33 35 35 36 37 37 37 37
40 38 37 35 33 32 31 29 27 26 25 24 23 22 22 22 22 22 22 23 23 23 23 24 24 25 26 27 28 29 30 31 32 33 35 36 37 38 39 39 39 38 38
41 40 39 37 36 35 33 32 31 30 28 27 26 25 25 25 25 25 25 26 25 25 26 26 27 28 29 30 30 31 32 33 34 36 37 39 40 41 41 41 41 40 39
42 41 41 40 38 38 37 35 34 33 32 30 30 29 28 28 28 28 28 29 28 28 28 29 30 30 31 32 33 34 35 36 37 38 40 41 42 43 43 42 41 41 40
43 43 42 42 42 41 40 39 37 36 35 34 33 32 32 31 31 30 30 31 31 31 31 32 33 33 34 34 35 36 37 38 39 41 43 44 44 45 44 43 42 42 41
45 44 43 43 43 43 42 41 40 39 38 37 36 36 35 34 34 33 33 33 34 34 34 34 35 36 36 37 38 38 39 40 41 43 45 46 46 45 45 44 43 42 41
47 46 46 45 44 45 44 44 43 42 41 40 39 39 38 37 37 36 36 36 36 36 36 37 38 38 39 40 41 41 41 42 43 45 46 47 46 45 45 44 43 42 41
50 49 48 48 47 47 47 47 46 45 44 43 42 42 41 40 40 39 39 38 38 39 39 39 40 41 41 42 43 44 43 43 44 45 47 47 46 45 44 44 43 42 42
50 50 50 49 48 48 48 48 47 47 47 46 45 45 44 43 43 42 42 41 41 41 41 41 42 43 43 44 44 46 46 46 46 45 45 45 45 45 44 44 43 43 43
50 50 50 50 50 50 50 49 48 48 48 48 47 47 46 45 45 44 43 43 42 43 43 43 44 44 45 45 46 46 48 49 49 47 45 43 43 43 43 43 44 43 43
50 50 50 50 50 51 51 51 50 49 49 49 48 48 47 47 46 45 44 44 44 44 44 44 45 45 46 47 47 47 48 49 49 48 46 44 43 43 43 43 43 42 43
50 50 49 49 49 50 50 50 49 49 49 49 49 49 49 48 47 46 46 46 46 46 45 45 46 46 47 47 48 48 48 48 47 46 45 44 43 43 43 43 43 43 43
Wind_Direction
229 229 228 227 227 228 231 238 249 258 260 259 251 243 238 246 7 17 11 3 357 353 350 347 345 343 342 342 341 337 334 332 331 331 330 330 329 328 328 328 328 327 326
232 234 234 233 233 235 239 243 251 257 260 256 244 232 224 291 9 6 359 355 351 348 344 340 339 337 337 338 337 335 333 332 331 330 330 330 330 330 330 329 328 327 325
234 237 238 239 239 242 244 245 247 249 249 243 231 221 229 308 348 353 352 349 345 343 338 335 334 333 333 334 334 333 332 331 330 330 330 330 331 330 329 328 327 326 324
236 238 242 242 242 243 244 242 240 238 237 231 225 226 249 296 327 339 342 342 340 338 335 332 331 330 330 331 331 330 330 330 330 331 331 330 330 329 328 327 326 324 322
236 238 241 242 242 241 240 237 233 231 228 226 227 237 261 291 316 328 332 334 336 335 332 330 329 328 328 329 330 330 330 330 330 330 330 329 329 328 327 325 324 322 320
235 236 237 238 238 236 234 232 228 225 223 225 232 245 267 290 306 317 324 328 331 331 330 330 328 327 327 328 329 330 330 330 330 330 329 329 329 328 327 325 323 321 319
234 234 234 235 234 231 228 226 225 223 225 230 239 253 271 288 300 310 318 323 326 327 328 329 328 328 328 329 329 330 330 330 330 330 329 329 328 328 327 326 324 322 320
234 233 231 232 231 227 223 221 220 221 226 234 245 259 273 286 297 306 313 318 322 324 325 326 326 327 326 326 327 327 327 328 329 329 328 328 328 327 326 325 323 321 319
234 232 230 229 228 225 221 218 218 220 225 234 245 258 272 284 293 302 309 315 318 320 321 323 324 325 324 323 324 324 325 326 326 327 327 326 326 326 325 324 322 321 318
234 233 230 227 225 223 221 219 220 223 227 235 244 256 268 278 287 295 303 310 314 316 318 319 321 321 321 321 320 321 321 322 323 324 324 324 323 323 322 321 320 319 317
233 232 231 227 225 224 223 222 223 226 231 238 247 256 266 275 282 290 297 303 307 310 312 313 315 315 315 316 316 316 317 318 319 320 320 320 319 319 318 318 317 316 315
231 231 230 228 227 227 226 226 228 231 236 242 250 258 266 273 280 286 291 296 301 304 305 307 308 308 310 310 311 312 313 314 315 315 316 316 315 315 315 314 314 313 312
229 230 229 229 229 229 229 230 232 236 241 246 253 260 267 273 278 283 288 293 297 300 302 303 303 304 305 306 307 308 309 310 311 312 312 313 312 312 312 312 311 311 310
230 230 230 230 231 231 232 233 236 240 244 250 256 262 267 273 278 282 286 290 293 297 299 300 300 300 301 302 304 305 306 307 308 309 310 311 311 311 311 310 310 309 308
231 231 231 230 231 232 233 235 238 243 247 253 258 263 268 272 277 281 285 287 291 294 296 297 298 298 299 300 301 303 304 305 306 308 309 309 309 309 310 309 308 307 306
232 233 233 232 232 234 235 237 240 244 249 254 259 263 268 272 276 279 283 286 289 291 293 294 295 296 297 298 299 301 302 303 305 306 307 308 308 308 308 308 307 306 305
233 235 235 235 235 235 237 239 242 245 250 254 259 263 267 272 275 278 281 283 286 289 290 292 293 294 295 296 297 299 300 302 303 305 306 306 307 307 307 307 306 305 304
233 236 237 238 237 238 239 240 243 247 251 255 259 263 267 271 274 277 280 282 285 287 289 290 291 292 294 294 295 297 299 301 303 304 305 305 306 306 306 305 305 304 303
234 236 238 239 239 240 241 243 245 248 252 256 259 263 267 270 273 276 279 281 284 286 287 288 290 291 292 293 294 296 298 300 302 303 304 305 305 305 304 304 303 302 302
236 238 240 241 241 241 242 244 246 249 252 256 259 263 267 270 273 276 278 280 282 284 286 287 288 289 290 291 293 295 297 299 301 302 303 304 304 303 302 302 301 301 300
237 239 241 242 243 244 244 245 247 250 253 256 260 263 267 270 273 275 277 279 281 282 284 285 287 288 289 291 292 294 296 298 300 301 302 302 301 300 300 300 299 299 298
238 240 243 245 246 246 246 246 248 251 253 257 260 264 267 270 273 275 277 278 280 281 283 284 285 287 288 290 292 293 295 296 298 300 300 300 299 298 298 298 297 296 296
240 241 243 246 247 247 247 248 250 252 255 258 260 263 266 269 272 274 276 277 279 280 282 283 284 286 288 289 291 293 294 296 297 298 297 297 296 296 296 296 295 295 294
240 242 244 245 247 247 248 250 252 253 255 258 261 263 266 268 270 272 274 276 277 279 281 282 284 285 287 289 290 292 294 296 297 298 296 295 294 294 294 294 294 294 293
240 242 244 245 246 248 249 251 253 254 256 258 260 262 264 266 268 270 272 273 276 278 280 281 283 285 287 289 290 292 293 295 296 296 296 295 295 294 293 293 293 293 294
240 242 243 245 246 247 248 251 252 254 255 257 259 261 263 265 267 268 270 272 275 277 279 281 283 285 287 289 290 292 293 294 294 295 295 295 295 294 293 293 293 294 295
Height
5898 5899 5900 5902 5902 5903 5904 5905 5905 5906 5906 5906 5906 5906 5906 5905 5905 5905 5904 5904 5904 5903 5902 5902 5901 5900 5899 5898 5896 5895 5894 5893 5891 5890 5889 5887 5885 5884 5882 5880 5878 5876 5874
5896 5897 5899 5900 5901 5902 5903 5903 5904 5904 5905 5905 5905 5905 5905 5905 5904 5904 5904 5903 5903 5902 5901 5901 5900 5899 5898 5897 5895 5894 5893 5892 5890 5889 5887 5886 5884 5882 5881 5879 5877 5875 5873
5894 5895 5897 5898 5899 5900 5901 5902 5903 5903 5903 5904 5904 5904 5904 5904 5903 5903 5903 5902 5902 5901 5900 5900 5899 5898 5897 5895 5894 5893 5892 5890 5889 5887 5886 5884 5882 5881 5879 5877 5875 5873 5871
5892 5893 5895 5896 5897 5899 5900 5900 5901 5902 5902 5902 5903 5903 5903 5903 5903 5902 5902 5901 5901 5900 5899 5898 5897 5896 5895 5894 5893 5892 5890 5889 5887 5886 5884 5882 5881 5879 5877 5875 5873 5871 5869
5889 5891 5893 5894 5895 5897 5898 5899 5899 5900 5900 5901 5901 5902 5902 5902 5901 5901 5901 5900 5900 5899 5898 5897 5896 5895 5894 5893 5891 5890 5889 5887 5886 5884 5882 5881 5879 5877 5875 5873 5871 5869 5867
5887 5889 5891 5892 5893 5894 5896 5897 5897 5898 5899 5900 5900 5900 5900 5900 5900 5900 5899 5899 5898 5898 5897 5896 5894 5893 5892 5891 5890 5888 5887 5885 5884 5882 5880 5879 5877 5875 5873 5871 5869 5867 5865
5884 5886 5888 5890 5891 5892 5894 5895 5896 5896 5897 5898 5898 5898 5899 5899 5898 5898 5898 5897 5897 5896 5895 5894 5893 5892 5890 5889 5888 5886 5885 5883 5882 5880 5878 5876 5874 5872 5870 5868 5866 5864 5862
5881 5883 5885 5887 5889 5890 5891 5893 5894 5895 5895 5896 5896 5896 5897 5897 5897 5896 5896 5895 5895 5894 5893 5892 5891 5890 5888 5887 5886 5884 5883 5881 5879 5877 5875 5874 5871 5869 5868 5865 5863 5861 5859
5877 5880 5882 5884 5886 5887 5889 5890 5892 5893 5893 5894 5894 5894 5895 5895 5895 5894 5894 5893 5893 5892 5891 5890 5889 5887 5886 5885 5883 5882 5880 5879 5877 5875 5873 5871 5868 5866 5864 5862 5860 5858 5856
5873 5876 5878 5881 5883 5884 5886 5888 5889 5890 5891 5891 5892 5892 5892 5892 5892 5892 5892 5891 5891 5890 5889 5888 5886 5885 5884 5882 5881 5879 5878 5876 5874 5872 5870 5868 5865 5863 5861 5859 5856 5854 5852
5869 5872 5875 5877 5879 5881 5883 5884 5886 5887 5888 5889 5889 5889 5890 5890 5890 5890 5889 5889 5888 5887 5887 5885 5884 5883 5881 5880 5878 5876 5875 5873 5871 5869 5867 5864 5862 5860 5857 5855 5853 5850 5848
5865 5867 5870 5873 5875 5877 5879 5881 5882 5884 5885 5886 5886 5886 5887 5887 5887 5887 5886 5886 5885 5885 5884 5883 5881 5880 5878 5877 5875 5873 5871 5870 5867 5865 5863 5861 5858 5856 5853 5851 5848 5846 5843
5860 5863 5866 5868 5871 5873 5875 5877 5879 5880 5881 5882 5883 5883 5883 5883 5883 5883 5883 5883 5882 5882 5881 5880 5878 5877 5875 5874 5872 5870 5868 5866 5864 5862 5859 5857 5855 5852 5849 5846 5844 5841 5839
5855 5858 5861 5864 5866 5869 5871 5873 5874 5876 5877 5878 5879 5879 5880 5880 5880 5880 5879 5879 5879 5878 5877 5876 5875 5873 5872 5870 5868 5866 5864 5862 5860 5857 5855 5852 5850 5847 5844 5842 5839 5836 5833
5850 5853 5856 5859 5861 5864 5866 5868 5870 5871 5873 5874 5875 5875 5875 5876 5876 5876 5875 5875 5874 5874 5873 5872 5870 5869 5867 5866 5864 5862 5860 5857 5855 5852 5850 5847 5844 5841 5839 5836 5833 5830 5827
5844 5848 5851 5853 5856 5858 5861 5863 5865 5866 5868 5869 5870 5871 5871 5871 5871 5871 5871 5870 5870 5869 5869 5867 5866 5864 5863 5861 5859 5857 5854 5852 5849 5847 5844 5841 5838 5835 5832 5829 5826 5823 5820
5838 5842 5845 5848 5851 5853 5855 5857 5859 5861 5862 5864 5865 5866 5866 5866 5867 5866 5866 5866 5865 5865 5864 5862 5861 5859 5857 5856 5853 5851 5849 5846 5844 5841 5838 5834 5831 5828 5825 5822 5819 5816 5813
5832 5836 5839 5842 5845 5847 5849 5851 5853 5855 5856 5858 5859 5860 5861 5861 5861 5861 5861 5860 5860 5859 5858 5857 5855 5854 5852 5850 5848 5845 5843 5840 5837 5834 5831 5827 5824 5821 5818 5814 5811 5808 5806
5825 5829 5832 5835 5838 5840 5842 5845 5847 5849 5850 5852 5853 5854 5855 5855 5856 5856 5855 5854 5854 5853 5852 5851 5849 5848 5846 5843 5841 5839 5836 5833 5830 5826 5823 5819 5816 5813 5809 5806 5803 5800 5797
5818 5821 5825 5828 5830 5833 5835 5838 5840 5842 5843 5845 5846 5847 5848 5849 5849 5849 5849 5848 5847 5846 5845 5844 5843 5841 5839 5836 5834 5832 5829 5826 5822 5819 5815 5811 5808 5804 5800 5797 5794 5791 5788
5810 5814 5817 5820 5823 5826 5828 5830 5832 5835 5836 5838 5839 5840 5841 5842 5842 5842 5842 5841 5840 5840 5838 5837 5835 5833 5831 5829 5827 5825 5822 5819 5815 5811 5807 5803 5799 5795 5791 5788 5785 5782 5779
5802 5806 5809 5812 5815 5818 5820 5822 5825 5826 5828 5830 5832 5833 5833 5834 5834 5834 5834 5834 5833 5832 5831 5829 5827 5826 5824 5821 5818 5815 5814 5813 5808 5803 5798 5794 5790 5786 5782 5779 5775 5772 5769
5793 5797 5801 5804 5807 5809 5812 5814 5816 5818 5820 5822 5823 5824 5825 5826 5826 5826 5826 5825 5825 5824 5823 5821 5819 5817 5815 5813 5810 5807 5804 5803 5800 5797 5791 5786 5781 5776 5773 5769 5766 5763 5760
5784 5788 5792 5795 5798 5800 5803 5805 5808 5810 5812 5813 5815 5816 5817 5817 5818 5818 5817 5817 5816 5815 5814 5813 5811 5809 5807 5805 5802 5798 5795 5792 5789 5787 5784 5778 5773 5768 5763 5760 5756 5753 5750
5775 5779 5782 5786 5788 5791 5793 5796 5798 5800 5802 5804 5805 5807 5807 5808 5808 5809 5808 5808 5807 5806 5805 5804 5802 5800 5797 5795 5792 5789 5786 5782 5778 5775 5773 5769 5765 5760 5755 5751 5747 5743 5740
5766 5770 5773 5776 5779 5781 5784 5786 5788 5791 5793 5794 5796 5797 5798 5798 5799 5799 5799 5798 5798 5797 5796 5794 5792 5790 5788 5785 5782 5779 5776 5773 5769 5765 5762 5758 5755 5751 5746 5741 5737 5733 5730